Theta_e
317 315 314 314 314 314 314 314 313 312 310 310 309 308 306 305 301 299 299 301 302 306 308 305 306 305 305 304 304 303 302 300 298 299 298 297 298 298 299 302 304 304 305 306 307 309 308 307 307 307 307 307 308 307 303 301 299 298 297 297 297 297 297 297 297 296 295 295 294 294 294 294 294 294
316 316 315 315 314 315 314 313 312 311 311 309 308 308 308 307 303 302 299 300 304 304 306 306 305 303 304 303 303 301 300 297 297 297 297 297 297 297 298 300 301 302 304 304 305 307 308 306 305 305 305 305 304 301 299 297 297 298 297 297 298 296 296 297 296 295 294 293 293 292 293 293 293 293
313 313 312 312 312 313 313 313 312 311 310 310 309 308 307 306 305 303 302 297 303 306 303 305 306 304 301 301 300 300 299 297 296 296 296 296 295 294 295 296 298 300 301 302 303 306 308 306 304 304 303 302 300 299 297 297 296 296 296 296 296 296 296 294 294 293 292 292 292 291 291 292 292 292
311 311 310 310 310 311 311 310 310 309 308 309 308 308 307 306 306 305 302 298 299 304 304 305 306 303 298 296 295 295 295 296 292 295 295 295 292 293 293 294 295 297 299 301 302 304 306 306 304 303 300 300 299 299 297 296 296 295 295 295 296 296 294 293 292 292 291 291 291 290 290 290 290 290
309 308 307 308 309 310 309 309 308 308 308 308 308 307 306 304 303 303 301 298 299 302 304 304 303 298 295 293 293 293 293 292 292 292 293 294 293 292 291 292 292 294 296 298 299 301 304 305 302 300 298 297 296 295 295 295 295 295 295 295 295 294 293 292 292 291 290 290 290 289 289 289 289 289
306 306 305 305 306 306 306 306 305 305 304 302 301 301 301 303 302 303 301 300 299 298 301 298 296 293 293 294 293 292 292 292 291 290 290 291 291 290 290 290 290 292 294 296 297 299 301 302 299 298 295 295 294 296 296 295 294 294 294 294 293 292 292 292 291 290 289 289 289 288 288 288 288 288
304 303 302 302 303 304 302 302 301 301 300 300 300 300 299 299 298 298 299 299 297 297 298 301 300 300 292 292 294 292 291 290 289 289 289 288 289 289 289 289 289 291 293 295 296 297 299 300 299 296 295 295 295 295 295 294 294 294 293 292 291 290 290 290 289 288 288 287 287 287 286 286 287 287
301 301 300 300 300 299 298 299 299 299 298 298 298 298 298 298 298 298 297 297 297 296 295 297 297 298 295 291 290 288 288 287 287 287 287 287 287 287 288 288 288 290 292 294 295 296 299 299 296 295 294 294 295 295 294 293 293 292 291 290 290 289 288 288 287 287 286 286 286 286 286 285 286 286
299 299 298 298 298 297 297 297 297 297 296 297 297 297 297 297 297 297 297 296 296 295 295 296 297 292 289 288 288 288 286 286 286 286 285 286 286 287 287 287 288 290 292 292 295 298 298 296 295 294 294 294 294 294 293 293 292 290 290 289 288 288 287 287 286 285 285 284 284 284 284 285 285 285
297 297 297 297 297 296 296 296 296 296 296 296 296 295 295 296 296 296 295 295 294 294 294 294 294 293 289 288 287 287 287 285 284 284 284 285 285 285 285 286 287 289 290 289 292 293 293 293 293 294 294 294 293 293 293 291 290 288 287 287 287 287 287 286 285 284 284 283 283 283 283 284 284 284
296 295 296 295 296 296 296 296 296 295 295 295 295 295 295 295 295 294 294 293 293 293 293 293 294 293 293 290 288 286 286 285 285 283 282 282 284 285 285 285 286 286 287 290 291 290 290 291 291 292 292 293 293 292 291 289 288 286 286 286 286 286 285 285 284 284 283 282 282 282 282 282 282 283
294 295 295 295 295 295 296 296 296 295 295 295 294 295 295 295 294 294 293 293 292 292 292 292 292 292 292 287 286 284 284 283 283 284 283 282 282 282 285 285 284 285 286 286 287 289 289 290 290 292 292 292 292 290 288 287 285 285 286 286 286 285 285 284 283 283 282 281 281 281 281 281 281 282
294 294 294 295 295 294 292 292 293 294 294 295 294 294 294 293 293 292 292 292 292 291 291 291 292 291 291 289 285 282 282 282 283 284 284 282 282 283 283 284 285 285 285 285 285 285 286 285 286 286 286 287 287 285 285 284 284 285 286 285 285 284 284 283 283 282 281 281 280 280 280 280 280 281
293 293 294 295 290 290 290 290 291 292 292 292 293 294 294 293 292 291 291 291 291 290 290 290 290 289 289 290 287 285 285 285 285 283 283 281 282 282 282 283 284 285 285 283 282 283 285 284 284 284 283 282 281 281 281 281 283 284 285 285 284 283 283 282 282 281 280 280 280 279 279 279 280 280
292 293 294 294 292 291 290 290 290 291 291 292 292 292 291 292 292 291 290 290 290 290 290 290 290 290 289 290 289 287 286 284 283 283 283 282 281 280 279 277 281 285 284 283 281 280 282 283 280 279 279 279 279 279 280 284 284 284 284 284 283 283 282 281 281 280 280 279 279 279 279 279 279 279
293 293 293 294 294 294 294 294 294 292 291 291 291 291 291 291 292 292 291 290 290 289 289 289 289 289 289 290 289 287 285 284 283 283 282 282 280 280 279 280 278 282 285 282 279 278 280 281 279 277 278 278 279 279 282 285 284 284 283 283 282 282 281 281 280 280 279 279 279 279 278 278 279 279
293 293 293 293 294 294 290 290 292 293 292 291 291 290 290 290 291 292 293 292 290 290 289 289 289 290 290 289 289 288 286 286 283 282 281 282 281 281 280 281 280 282 284 281 278 276 278 278 277 275 276 277 279 280 283 284 284 283 283 282 282 281 280 280 279 279 278 278 278 278 278 278 278 278
292 293 292 292 292 293 293 293 293 292 292 292 292 291 291 291 290 290 290 290 290 289 289 289 288 290 291 289 290 288 287 285 283 282 281 282 281 281 281 282 281 282 284 280 278 275 276 277 275 274 275 277 278 279 282 283 283 282 282 281 281 280 280 279 278 278 278 278 277 277 277 277 277 278
292 292 293 292 292 293 293 293 293 292 292 290 289 289 289 289 289 290 290 290 290 289 289 289 289 290 291 291 290 288 287 286 286 285 284 283 283 283 283 281 281 281 283 281 279 274 276 276 274 272 273 276 277 279 282 283 282 282 281 280 280 280 279 278 278 277 277 277 277 277 276 276 277 277
292 292 292 292 292 292 292 291 292 291 291 290 288 288 288 288 288 289 289 291 291 290 290 290 289 289 290 291 289 288 287 286 286 285 285 284 283 280 279 277 278 278 281 281 279 275 274 275 273 272 273 275 276 278 278 281 281 281 280 280 279 279 278 277 277 277 276 276 276 275 276 276 276 277
291 291 291 291 292 291 291 291 292 293 291 289 288 288 287 288 288 288 288 290 291 291 291 291 292 292 292 293 293 293 291 288 286 285 283 281 281 279 276 276 276 277 279 280 280 276 273 273 272 271 272 274 275 275 276 277 280 279 279 279 278 278 277 276 276 276 275 275 275 275 275 275 275 275
290 290 288 288 290 290 290 291 292 292 290 288 288 287 287 287 287 287 288 288 288 290 290 290 290 290 291 291 292 292 291 290 287 284 281 282 281 279 278 275 276 276 278 278 279 275 272 272 272 270 271 272 273 274 275 275 276 278 277 278 277 276 276 275 275 275 274 274 274 274 274 274 274 272
290 290 289 288 288 289 290 291 292 292 290 288 288 287 286 286 286 287 288 287 287 287 286 286 286 286 287 288 288 288 290 289 287 286 285 283 281 279 278 276 275 273 275 277 279 273 271 270 271 270 268 267 270 273 273 273 273 273 272 272 272 274 274 274 274 274 273 273 273 273 273 273 273 271
287 288 289 289 290 291 291 291 292 292 291 289 288 287 287 286 285 288 287 287 287 287 287 286 286 286 287 287 287 286 287 287 286 286 285 284 282 281 278 276 276 274 274 277 279 273 272 272 269 272 271 267 265 268 270 270 270 270 270 270 270 272 272 272 272 272 272 272 272 272 272 272 273 270
286 286 287 288 290 291 291 291 291 291 291 291 288 288 287 287 287 288 287 287 286 286 286 286 286 286 286 286 286 286 286 286 285 285 285 284 284 282 279 277 276 275 275 277 280 274 271 272 270 270 269 270 268 267 269 269 270 270 270 270 269 269 269 269 269 269 271 271 271 271 271 272 273 271
285 286 287 287 288 290 290 290 291 291 291 291 289 288 290 290 290 288 287 287 287 286 286 285 285 285 284 283 284 284 284 284 284 284 283 283 282 281 281 279 277 273 273 278 280 275 272 271 271 270 269 267 267 267 266 267 269 269 270 269 269 269 268 268 268 268 268 268 268 269 270 272 272 272
285 286 286 287 287 288 289 289 290 290 290 289 288 290 290 290 289 288 287 287 286 285 285 285 283 283 282 281 280 278 275 274 275 275 275 275 275 274 274 275 276 276 277 277 276 275 274 271 272 270 269 269 267 267 266 265 266 268 267 268 268 268 268 268 267 267 267 267 267 270 270 270 270 271
286 286 286 286 287 288 288 288 289 289 289 287 289 289 289 289 288 287 286 286 286 285 284 282 281 281 281 280 277 273 272 272 272 272 272 271 271 270 269 270 271 273 273 273 274 274 273 271 271 271 271 269 267 266 265 267 266 266 265 267 267 267 267 267 267 267 267 267 266 267 266 266 267 267
286 286 287 287 287 287 287 287 288 287 287 287 288 288 288 287 286 286 286 285 285 283 282 281 281 280 278 276 273 271 269 269 269 268 268 268 267 267 266 266 266 266 267 269 271 272 272 272 270 270 270 270 268 268 267 265 265 265 266 265 264 265 266 266 266 265 265 266 265 265 265 265 265 266
286 286 287 287 286 286 286 286 285 285 285 286 287 287 286 286 286 286 285 285 284 282 282 281 280 276 269 268 268 269 269 269 269 268 268 268 268 268 268 266 264 263 264 265 268 269 270 270 270 269 269 268 268 267 266 265 264 265 265 265 265 266 265 265 265 265 265 264 265 264 265 265 265 265
286 286 286 286 286 286 286 286 285 285 285 285 285 286 286 285 285 285 285 285 283 283 282 281 275 269 269 268 268 269 270 270 270 271 270 269 268 268 267 265 263 262 263 263 264 266 267 268 268 269 267 266 266 266 266 266 264 263 264 264 264 262 264 263 264 264 264 264 264 263 264 265 265 267
285 285 285 285 285 285 285 285 285 285 286 286 285 285 285 285 285 285 285 285 284 284 282 273 269 268 268 268 269 270 270 270 270 271 270 269 267 267 267 265 263 262 262 263 263 263 263 265 266 267 267 266 264 263 265 265 264 264 263 264 263 263 263 262 262 262 263 262 261 261 262 263 263 265
285 285 284 284 284 284 284 284 284 284 284 285 285 285 285 285 285 285 284 283 282 281 273 271 269 268 269 269 270 270 269 269 270 270 269 269 268 268 268 265 262 262 261 261 261 261 262 261 262 263 264 265 265 264 264 262 263 264 263 262 262 261 261 262 261 262 262 261 258 259 260 262 264 265
283 283 283 283 283 283 283 283 283 283 284 283 284 284 284 284 284 284 284 283 282 275 274 272 271 270 269 269 269 269 268 268 268 269 270 268 268 267 265 264 263 263 262 261 261 260 261 261 262 262 262 261 262 262 263 263 262 263 263 262 262 260 262 260 261 261 261 260 259 257 258 260 263 264
282 282 281 282 283 283 283 283 283 283 283 283 283 283 283 284 283 283 283 283 277 274 273 272 271 271 270 269 268 268 267 267 267 268 268 268 268 266 265 263 262 262 261 261 260 261 261 261 262 261 261 261 262 262 265 263 263 262 262 261 261 261 260 261 259 259 260 258 260 258 257 258 260 263
281 281 281 282 282 283 282 283 283 283 283 283 283 283 282 282 283 283 282 280 274 274 272 271 271 271 270 269 269 268 267 267 267 267 267 267 266 265 265 264 263 262 262 261 260 261 262 262 263 262 261 261 261 260 260 265 265 262 261 261 261 260 259 259 258 258 258 257 259 258 257 256 258 262
280 281 282 282 282 283 282 283 283 283 283 283 283 283 282 282 282 283 282 277 275 274 272 271 271 271 270 269 268 268 267 267 266 267 267 267 266 265 264 263 263 262 262 261 261 262 262 262 264 264 263 262 262 262 260 260 264 265 261 262 261 260 258 258 256 256 258 258 257 258 257 257 257 261
280 281 281 282 282 283 283 283 283 283 283 283 283 283 283 283 283 280 276 275 275 274 273 272 271 271 269 269 268 267 267 267 267 266 266 266 265 264 263 262 262 262 261 261 261 262 263 263 264 265 265 263 263 262 258 259 258 261 266 262 260 260 260 257 256 255 256 259 257 259 260 258 259 260
281 282 282 282 282 283 282 283 283 283 283 283 283 282 282 281 278 276 275 275 274 274 273 272 271 269 269 269 268 267 267 266 266 266 265 265 265 264 263 262 261 260 260 259 260 261 262 263 263 264 265 265 264 262 261 258 258 261 265 266 261 258 257 257 255 257 256 256 257 258 258 260 263 266
281 282 282 282 282 283 283 283 283 283 283 283 283 283 281 278 277 276 275 274 274 273 272 272 270 269 268 269 268 268 267 267 266 266 265 265 265 264 263 262 261 260 259 258 258 259 260 262 262 263 261 259 258 259 261 261 261 262 262 264 265 261 257 258 256 255 256 257 257 256 254 256 255 258
281 281 282 282 282 282 282 283 283 283 283 283 282 282 280 279 277 276 275 274 273 273 272 272 270 269 269 269 268 268 266 266 266 265 265 265 264 263 263 262 260 260 259 258 259 259 260 260 259 261 259 258 258 261 260 258 256 256 256 258 265 266 265 263 258 257 255 256 255 254 253 253 254 256
280 280 281 281 281 282 282 282 282 283 282 282 282 281 279 278 276 276 276 275 273 273 272 271 270 270 269 268 268 268 267 266 265 265 265 265 264 262 262 261 260 260 259 258 259 259 257 258 259 258 258 259 259 259 258 259 257 256 256 257 259 265 266 265 265 264 259 256 255 254 254 255 257 255
279 279 279 280 281 281 282 282 282 282 282 282 280 279 277 276 275 275 274 273 272 272 271 270 270 270 269 268 268 268 267 266 265 265 265 264 263 262 261 261 261 261 261 259 257 256 257 257 258 259 258 258 258 259 259 258 258 257 256 256 257 256 256 262 264 265 266 266 265 261 258 256 255 252
278 279 279 280 281 281 281 282 282 282 281 280 279 278 276 275 274 274 273 272 272 271 271 270 270 269 268 268 269 268 267 266 265 265 264 263 263 262 262 262 262 261 259 257 256 256 256 257 258 258 258 257 257 257 257 256 256 256 255 255 254 253 253 254 255 260 262 265 266 267 268 267 266 265
277 276 276 278 279 280 280 281 280 280 280 279 277 276 274 274 273 273 272 272 271 271 270 270 269 269 268 268 268 267 266 266 265 265 264 263 263 262 262 262 261 259 257 257 256 256 256 256 257 258 257 257 256 256 256 255 255 255 254 252 251 252 253 254 253 253 253 254 261 266 266 267 267 267
Wind_Speed
8 8 11 11 10 10 10 10 10 9 9 9 9 9 11 9 11 13 14 19 10 9 5 9 3 9 8 8 6 8 7 9 10 6 7 9 9 13 16 20 22 24 23 23 24 24 20 21 20 18 19 16 16 12 16 19 18 14 10 7 6 7 5 4 4 6 5 5 4 2 3 5 8 9
8 9 7 6 7 7 7 8 8 8 9 9 9 9 9 9 12 12 12 19 14 9 5 6 6 2 6 5 5 5 6 8 8 6 7 8 10 13 13 16 20 22 23 22 24 23 24 19 18 16 16 15 19 21 17 16 14 13 11 10 9 7 6 7 8 6 7 6 3 1 2 5 7 8
6 8 9 8 9 9 9 9 7 7 7 9 8 8 8 9 11 12 10 14 21 3 10 3 3 4 3 2 2 2 4 4 6 6 7 8 10 11 9 14 16 19 20 20 21 22 23 20 19 18 18 22 21 20 17 14 13 13 12 10 9 7 7 9 7 6 6 5 3 2 2 4 5 7
7 8 9 8 9 8 8 8 7 7 7 8 8 8 8 9 10 10 11 12 23 10 6 11 9 4 4 4 5 7 5 4 5 6 6 7 7 7 7 11 15 16 18 19 20 19 20 20 20 18 21 20 20 19 17 14 12 11 11 10 9 10 11 10 8 8 7 5 5 4 2 3 5 5
9 8 9 10 10 9 9 8 7 8 9 8 9 8 8 9 7 9 10 14 18 18 7 9 10 2 3 5 6 8 6 5 5 5 4 4 5 5 5 5 9 13 15 17 18 17 17 18 20 20 19 19 18 17 16 16 15 14 11 11 12 13 11 10 9 8 7 6 5 3 2 2 4 3
7 7 9 10 9 8 9 9 9 8 7 5 5 6 7 9 8 8 9 12 14 20 13 5 3 4 4 8 4 8 8 7 4 5 4 3 3 4 3 4 4 9 13 15 17 17 18 18 21 19 17 17 17 17 17 16 15 13 12 13 13 12 11 10 10 9 7 7 5 3 2 3 2 3
8 8 9 10 9 8 9 10 9 8 9 8 9 11 7 9 8 7 9 10 14 17 18 12 10 8 4 8 7 4 4 2 1 5 4 4 2 2 3 4 3 8 14 18 19 19 19 21 19 19 18 16 16 16 16 16 16 16 16 16 15 14 12 11 10 9 8 6 5 3 2 1 2 4
8 9 9 10 8 8 10 10 9 8 7 8 8 9 8 9 11 8 8 10 11 11 15 15 8 8 7 6 3 0 0 3 2 3 0 2 4 3 3 5 6 7 14 16 18 20 21 21 21 20 17 16 16 17 16 17 18 19 18 16 15 14 13 11 10 10 8 6 5 4 2 1 3 5
9 10 10 10 8 8 10 11 9 8 9 8 8 10 9 9 9 9 9 10 10 12 15 16 12 5 4 1 1 3 4 2 2 1 2 2 4 3 4 4 4 6 13 16 18 17 21 22 21 19 17 17 17 17 18 19 19 18 18 17 16 15 13 12 11 9 8 7 6 3 2 3 5 6
9 10 10 10 9 9 10 11 9 8 9 8 9 10 9 9 9 10 9 8 9 10 12 12 15 8 7 5 5 5 6 6 4 2 1 1 3 4 3 2 2 4 5 3 6 12 15 20 20 17 17 18 18 18 18 19 18 17 17 16 15 15 14 13 12 10 9 8 6 4 4 4 6 6
9 10 10 10 9 10 10 11 11 9 10 9 11 11 10 11 10 10 10 8 10 10 11 12 12 12 8 6 7 3 5 3 4 5 3 4 3 1 4 3 1 2 5 6 11 9 8 12 11 16 18 18 18 18 19 19 18 17 17 16 16 15 14 12 11 10 9 7 6 5 5 5 5 6
9 10 10 10 10 11 11 10 10 10 11 9 11 10 9 10 10 10 9 8 9 9 10 11 11 9 10 2 1 3 4 4 3 6 6 6 6 6 4 5 6 2 7 7 7 10 12 14 16 18 17 17 18 20 19 20 19 18 17 16 16 14 13 12 11 10 9 7 6 6 5 5 5 6
10 10 10 10 10 11 14 16 16 14 13 11 11 11 7 9 9 9 8 8 8 8 10 12 9 9 9 6 5 5 6 9 10 6 6 5 5 5 5 4 4 5 8 7 8 7 7 7 7 6 6 8 16 17 18 16 19 18 17 16 15 14 13 13 12 10 9 8 7 6 5 4 4 5
10 10 10 11 14 15 16 17 18 18 18 19 16 14 10 9 9 9 9 9 8 8 10 12 11 11 11 9 8 10 9 6 3 6 8 8 6 6 5 4 3 5 8 8 8 5 5 8 6 7 7 8 9 8 8 7 10 14 17 16 14 14 13 12 11 10 9 8 7 5 4 3 4 5
12 11 11 11 11 12 14 15 17 18 19 19 20 22 21 16 13 11 12 11 8 9 10 11 10 11 12 11 7 9 7 7 9 9 8 7 8 9 11 10 3 5 9 8 8 5 2 8 8 6 7 7 7 6 7 16 17 16 16 15 14 14 13 12 11 10 9 8 6 4 3 3 4 6
11 12 11 10 9 9 11 11 11 13 17 19 20 21 20 20 21 20 15 13 10 8 9 11 12 11 12 11 7 7 7 8 8 7 8 9 10 9 11 11 12 8 11 10 9 7 2 3 10 8 6 6 6 7 13 18 17 17 16 15 15 14 13 12 10 10 9 7 5 3 3 3 5 7
11 11 11 11 10 9 13 12 11 12 13 14 18 19 20 20 20 21 22 21 15 9 11 12 13 13 10 10 10 7 10 8 9 8 8 10 10 12 11 9 7 9 11 10 9 8 4 6 9 9 5 4 6 9 14 18 17 17 15 15 14 13 12 11 11 9 8 6 4 3 3 4 6 8
12 11 11 11 12 10 9 10 11 11 11 11 11 11 11 11 14 18 20 21 20 17 14 13 15 14 9 11 11 7 9 11 12 12 11 11 9 12 13 11 9 9 12 13 11 6 6 4 8 8 5 4 6 6 13 18 17 16 16 15 14 13 12 11 10 9 7 6 4 3 2 4 7 8
12 12 11 12 13 13 11 9 10 11 11 10 11 11 11 11 11 11 10 10 10 12 13 13 14 15 13 13 12 7 10 13 13 14 15 16 15 10 5 6 7 9 9 10 11 7 7 6 9 6 6 5 5 6 13 17 16 16 15 15 14 13 12 11 10 8 7 6 4 3 2 5 7 9
10 10 10 11 12 13 12 12 14 13 11 10 13 13 13 12 11 11 11 12 14 14 12 11 12 12 13 14 11 8 9 10 8 5 3 4 7 9 9 10 9 11 8 11 10 7 7 7 10 7 4 4 6 6 5 14 16 15 15 14 14 13 12 11 9 8 6 5 4 2 3 5 7 10
10 10 10 11 12 12 13 13 13 14 13 11 14 14 14 13 12 12 9 12 18 20 20 21 22 21 21 21 21 21 19 13 10 8 8 10 11 9 10 9 11 12 10 9 8 11 9 8 9 9 5 5 7 6 6 6 13 14 14 13 14 13 12 10 8 7 6 5 3 2 3 5 7 10
9 12 16 14 12 13 14 15 15 15 12 11 12 13 14 15 15 13 10 7 10 16 19 20 20 21 22 22 22 22 18 18 15 12 14 13 10 11 13 9 10 8 9 8 10 11 9 11 10 10 6 6 3 6 6 7 9 13 12 13 13 12 10 9 8 7 6 4 2 2 3 4 7 5
10 11 12 16 15 13 15 19 18 17 13 11 12 12 12 14 15 15 8 9 11 9 8 9 11 12 15 14 12 12 18 20 19 14 13 11 14 14 11 11 10 8 5 8 12 11 8 12 9 12 9 3 2 3 5 7 8 7 6 7 7 9 8 8 7 6 5 3 2 2 3 4 5 3
12 12 11 13 16 17 18 18 19 18 18 13 12 11 11 13 18 12 9 11 10 10 10 10 10 11 9 8 9 8 10 13 15 13 10 11 12 12 12 13 15 15 9 9 11 11 8 12 12 9 6 11 8 6 5 5 6 5 6 6 5 7 6 7 5 5 4 1 1 1 3 3 4 2
12 12 12 10 13 16 16 16 16 17 18 16 12 11 12 13 14 13 12 13 12 10 10 10 10 9 8 7 6 6 7 8 9 9 8 9 10 11 12 12 11 5 6 12 15 12 9 11 11 7 2 4 6 8 6 6 6 5 5 6 6 5 4 4 3 2 4 2 1 2 3 5 6 3
12 12 11 11 13 16 15 15 16 18 18 19 12 14 19 21 20 15 12 11 9 8 8 9 9 8 6 5 5 5 5 5 6 6 4 4 3 2 7 13 13 10 9 12 18 11 13 11 12 10 5 7 5 8 8 4 4 5 4 4 4 5 4 3 3 3 2 1 0 2 4 6 5 5
13 11 12 13 16 17 17 16 17 17 20 17 14 20 20 21 21 17 11 10 9 8 8 8 6 5 5 5 4 3 3 4 6 7 7 8 8 9 9 9 5 4 9 12 9 10 12 10 10 10 8 7 11 6 7 7 4 5 4 4 4 4 3 4 3 3 2 1 1 4 5 5 4 4
12 12 13 13 19 21 21 21 22 23 22 17 21 22 23 21 17 12 11 9 9 8 9 8 5 4 4 4 4 4 4 5 6 8 8 9 10 12 13 13 12 10 9 7 7 7 9 11 9 5 9 11 10 10 8 4 5 7 6 5 4 3 3 4 2 2 1 1 1 1 2 2 1 2
12 15 21 24 25 25 25 28 27 22 22 25 23 23 22 19 11 10 10 9 8 9 9 9 6 6 3 2 4 5 6 8 8 11 10 10 12 13 15 14 13 12 10 6 6 5 8 11 10 7 6 5 8 6 8 6 7 6 7 7 3 3 3 3 3 2 1 0 1 1 2 2 3 1
23 24 24 26 26 23 20 14 12 11 13 17 19 19 17 11 10 9 9 9 8 8 9 8 7 5 4 5 6 7 6 7 8 10 10 11 9 10 12 13 12 9 10 10 7 7 7 8 9 9 8 6 6 8 7 9 6 5 5 4 5 5 3 2 3 2 1 1 0 1 3 2 3 1
12 14 15 14 19 20 23 24 23 22 21 18 15 11 9 9 10 10 10 9 9 9 7 6 5 6 6 6 7 6 6 7 6 7 11 11 10 10 10 13 11 8 6 8 10 9 7 6 6 8 11 7 7 6 5 6 8 6 4 3 4 4 4 3 2 2 0 0 0 2 3 3 3 2
13 14 16 19 15 14 13 13 11 9 9 10 10 8 7 8 8 10 11 11 9 8 4 5 7 7 7 8 6 6 5 6 6 6 9 12 10 11 13 13 11 8 5 6 6 7 8 8 6 7 7 8 9 5 5 5 6 6 5 4 3 4 4 3 2 2 1 0 1 1 2 3 4 3
16 14 15 13 14 12 12 12 11 10 10 10 9 9 8 8 8 7 7 8 8 5 7 8 8 7 7 6 6 6 7 6 6 5 7 9 13 7 9 14 9 9 10 6 5 4 5 8 13 10 9 7 6 8 9 7 3 4 6 5 4 3 3 3 3 1 1 0 1 1 2 3 4 3
17 16 15 14 14 13 11 12 11 11 10 9 9 8 9 9 8 7 8 8 6 7 8 9 10 9 7 7 8 8 8 7 6 5 8 9 9 12 12 12 6 5 6 7 5 5 5 5 8 9 9 8 7 6 3 4 6 5 4 5 5 4 3 3 2 3 0 1 1 2 2 2 3 3
15 15 14 14 14 13 12 12 12 11 10 10 9 9 8 8 8 8 7 7 5 7 7 8 8 10 11 11 10 8 9 9 8 7 5 7 8 11 10 8 8 7 7 7 6 4 7 8 9 9 7 6 5 3 4 3 5 6 5 4 3 4 4 4 2 0 0 1 1 1 3 2 3 2
14 14 14 14 14 12 12 12 11 11 11 10 10 9 9 8 7 7 8 6 8 8 8 9 9 10 10 10 10 9 9 9 10 9 9 9 10 9 5 6 7 7 5 6 7 7 7 7 8 9 9 6 4 3 1 2 3 2 6 5 4 3 3 3 2 1 1 1 1 1 1 3 3 2
16 14 14 14 13 12 12 11 10 11 11 11 10 9 9 8 7 8 6 8 9 10 10 10 11 10 9 9 9 8 9 10 11 9 9 9 7 9 8 9 9 7 7 6 7 8 7 7 6 7 8 7 6 5 3 2 1 1 1 5 5 4 3 4 3 2 3 3 1 2 3 3 4 4
15 14 14 13 12 12 12 11 11 11 11 10 10 9 9 9 7 4 6 8 9 9 9 10 10 9 9 10 11 9 8 6 8 10 9 12 9 8 7 9 9 9 7 7 7 6 5 6 6 5 6 8 7 6 4 2 1 2 4 3 6 5 4 3 3 3 2 1 3 3 2 3 4 4
13 13 13 12 12 11 11 11 11 11 11 10 9 9 9 6 4 5 7 8 8 9 9 9 9 10 11 11 11 12 12 10 9 9 10 11 8 9 10 10 8 7 10 8 5 4 4 5 4 4 3 5 5 4 8 8 4 3 5 7 5 5 3 5 2 1 2 1 3 1 2 3 6 11
13 12 12 12 12 12 12 11 11 10 11 10 9 9 7 7 6 7 7 7 8 8 9 10 10 9 9 10 10 9 9 13 14 12 13 13 10 12 12 12 9 9 11 9 8 5 4 4 2 1 4 6 6 6 8 8 6 4 3 5 8 5 1 2 3 2 1 1 1 1 3 3 2 2
12 11 10 11 12 12 12 12 11 11 10 9 9 8 8 7 7 7 8 9 9 9 9 9 10 12 11 11 11 12 12 9 8 11 11 10 11 10 11 11 11 11 11 9 8 7 5 3 5 10 9 7 6 8 9 7 4 2 2 2 6 7 6 4 2 1 2 1 1 2 3 3 2 2
12 12 13 13 14 14 13 13 12 11 11 9 9 8 6 6 7 9 8 9 8 8 8 9 10 11 11 10 10 10 11 13 13 12 11 12 11 11 11 10 11 8 10 10 11 6 4 4 5 5 5 6 4 5 4 7 6 5 3 2 0 4 6 6 7 7 5 3 2 2 2 2 1 2
13 13 13 13 13 13 12 12 12 10 10 10 8 6 5 6 5 6 6 7 8 8 8 8 9 10 10 10 10 10 10 11 14 13 11 12 14 14 11 10 9 9 7 7 7 6 5 4 3 4 4 4 2 3 6 6 7 6 5 4 2 1 2 5 7 9 10 12 11 8 5 3 2 1
13 14 13 13 13 13 12 11 11 10 10 8 6 5 6 6 7 7 8 8 9 9 9 9 9 9 10 10 10 9 9 11 14 14 12 11 12 12 11 9 8 8 8 7 6 6 4 4 3 4 5 4 2 4 7 7 6 6 5 5 3 2 3 2 2 6 7 9 12 15 17 16 13 11
13 15 15 13 12 13 12 12 11 10 9 6 4 5 4 5 5 5 5 6 7 7 8 8 8 8 9 10 10 11 9 10 11 10 11 11 10 9 9 10 9 9 8 8 9 7 5 5 3 4 5 5 3 4 5 5 6 6 4 3 3 3 3 1 1 2 3 4 7 11 12 12 13 14
Wind_Direction
239 236 233 234 242 239 238 240 237 237 232 233 236 233 237 240 257 278 288 285 272 278 210 271 210 207 218 224 219 239 235 241 243 228 221 230 236 237 231 236 242 247 248 249 250 246 233 234 227 220 217 198 204 180 125 116 116 121 141 170 178 180 185 165 144 111 104 87 83 53 320 303 301 306
266 268 267 260 262 256 249 244 241 240 237 236 235 235 234 228 237 252 270 281 279 280 261 218 272 168 231 206 227 217 236 244 236 223 220 227 232 234 227 233 239 243 245 248 250 249 236 225 223 200 194 175 141 132 130 127 138 161 168 179 191 202 188 160 133 118 104 107 101 117 284 284 293 292
264 258 259 256 258 263 263 262 254 248 244 244 241 238 235 231 230 247 253 272 277 170 273 238 245 259 211 239 255 239 241 233 216 221 221 227 233 227 225 228 236 239 242 244 247 250 243 224 215 202 168 156 142 135 138 148 161 168 179 193 203 201 160 127 132 133 122 122 145 178 235 277 284 294
269 272 269 265 264 266 263 260 257 254 246 247 246 241 236 232 227 232 241 246 271 258 245 281 277 248 216 198 215 238 242 244 218 232 227 232 233 219 231 228 230 237 240 243 245 246 249 229 214 190 165 152 145 155 155 156 169 174 190 193 188 167 145 140 139 140 139 148 164 181 199 254 277 289
272 271 272 271 270 272 269 267 265 258 253 245 243 240 234 236 221 221 236 253 268 280 244 262 274 237 205 251 206 237 233 234 232 232 241 223 218 227 228 234 234 234 240 244 248 250 252 232 177 169 165 147 148 153 157 168 182 190 184 178 169 146 140 139 142 142 152 161 157 149 198 252 264 303
269 270 267 269 266 262 264 265 262 259 259 250 254 246 232 240 232 215 238 251 264 277 286 243 293 249 189 255 182 224 234 236 212 225 230 230 225 229 226 222 231 232 234 242 241 243 256 190 172 169 166 152 148 156 164 173 176 181 164 151 145 146 146 149 149 149 152 148 144 152 190 233 283 356
278 271 267 268 267 267 265 263 262 261 258 256 252 253 244 249 245 231 231 250 261 271 277 278 276 272 209 229 248 223 247 301 199 235 235 219 227 222 218 228 225 229 231 231 233 230 234 183 175 173 170 152 159 169 171 170 162 150 145 147 146 144 147 144 143 147 145 141 149 164 181 221 17 14
279 275 278 273 272 270 266 265 262 259 256 252 251 254 247 248 251 241 237 236 256 272 284 283 273 281 278 247 250 156 67 203 221 219 144 156 208 206 207 214 224 228 234 233 231 233 212 175 177 176 173 165 171 173 168 155 147 143 146 147 146 143 144 149 148 143 134 141 155 162 161 74 32 18
281 279 273 277 277 272 270 271 264 265 258 253 252 252 251 247 250 247 236 238 238 252 264 277 279 253 250 256 197 169 187 179 144 85 153 167 193 204 215 219 225 227 232 238 231 203 176 168 174 177 172 167 164 164 160 153 145 144 146 145 144 144 146 148 149 144 141 138 120 133 99 55 35 19
271 271 272 271 270 267 263 270 269 262 260 256 252 253 252 250 250 250 245 239 245 250 262 272 284 263 245 246 223 193 193 188 178 165 117 122 191 196 195 195 208 213 188 170 143 136 155 168 174 174 167 162 160 157 156 148 141 140 142 144 146 147 149 152 148 147 149 135 142 117 75 48 31 16
267 264 265 266 262 261 260 264 266 264 261 256 255 251 250 250 246 249 248 241 243 248 258 265 263 274 261 222 245 177 183 188 184 180 162 206 188 186 174 162 94 105 109 125 132 139 145 163 162 165 161 163 161 157 149 136 138 143 145 147 151 152 155 152 146 145 142 145 129 103 77 50 22 9
266 264 263 261 260 256 257 257 260 255 259 258 258 252 246 249 246 249 251 246 246 252 256 260 270 260 269 219 110 102 154 175 215 201 196 200 179 181 184 177 152 140 130 136 147 157 157 159 160 161 160 159 157 145 136 139 143 147 149 151 153 154 150 146 145 141 146 135 109 89 73 49 20 4
269 267 262 261 259 256 255 254 254 254 253 258 264 259 240 245 244 246 246 246 249 253 258 266 262 264 259 237 187 181 191 199 213 194 178 193 167 164 156 173 166 159 149 142 141 144 144 145 143 135 126 149 138 132 134 141 146 150 153 151 151 150 149 146 141 142 139 115 97 86 68 40 12 359
276 272 272 268 261 259 258 256 255 255 255 253 252 262 258 248 247 246 247 248 246 252 259 262 264 259 257 245 208 220 217 207 167 158 183 185 165 148 154 151 187 175 152 144 124 124 146 129 115 116 105 94 111 121 125 140 149 154 153 152 150 150 149 144 143 140 120 104 96 88 69 28 2 343
289 284 276 274 270 263 259 258 256 256 256 255 255 256 254 250 247 252 251 250 242 248 256 262 255 253 260 254 222 221 209 188 193 197 187 174 156 169 166 185 162 210 159 152 136 128 146 133 119 100 106 116 115 123 138 148 151 153 151 152 151 151 147 146 140 124 109 102 97 83 61 17 347 327
284 285 285 279 275 269 266 266 264 257 252 253 256 258 257 255 249 242 242 250 253 244 249 255 252 253 250 261 236 217 187 200 200 196 182 184 175 174 190 186 187 179 165 148 145 127 84 105 125 115 120 121 118 139 149 150 151 151 152 152 152 149 148 142 128 112 106 103 98 82 47 1 330 318
278 280 282 285 277 273 268 263 261 263 266 260 256 256 259 258 254 251 247 245 246 255 254 256 259 250 253 254 250 207 208 186 193 180 184 191 192 195 193 185 151 157 164 144 146 132 135 134 130 116 108 115 131 145 149 151 151 153 154 155 152 150 144 129 115 109 108 105 91 75 32 340 317 313
277 276 278 281 280 276 267 262 263 262 262 265 265 261 256 253 253 250 248 249 248 245 246 249 255 258 248 247 254 225 185 179 193 187 198 193 187 194 203 186 160 159 166 166 146 123 141 130 119 118 112 124 132 137 152 152 155 155 155 155 154 148 133 117 114 113 110 108 90 71 17 325 311 313
271 274 274 274 276 278 273 265 262 267 267 266 265 264 262 258 256 253 248 240 240 241 241 245 250 259 257 254 253 235 192 198 199 194 193 189 194 188 106 92 142 158 172 152 147 142 134 130 119 109 130 135 131 142 154 152 154 155 156 156 152 138 122 116 117 116 112 99 85 61 357 316 314 318
268 271 271 275 276 276 275 269 263 262 267 270 270 267 266 266 260 256 246 241 242 243 244 245 248 251 254 254 252 229 204 206 200 183 149 136 137 143 159 160 157 156 170 168 157 134 131 140 133 122 125 128 131 134 127 156 154 156 157 155 141 126 119 116 118 118 111 94 79 50 340 319 321 322
269 266 263 266 272 276 275 273 270 270 266 267 268 269 270 269 269 266 257 238 242 247 248 251 251 255 258 257 255 249 220 200 179 164 164 180 167 155 162 161 164 172 161 179 159 135 127 144 128 122 135 133 134 136 141 142 155 155 157 146 130 122 117 119 120 114 104 90 76 37 343 330 327 322
270 266 259 253 261 267 271 276 274 269 267 268 268 269 272 275 273 269 260 253 250 247 249 252 256 255 256 256 256 255 218 192 176 175 189 182 164 178 176 168 164 127 162 169 150 137 135 129 131 124 117 99 112 140 145 149 152 154 145 132 122 118 120 124 124 114 102 92 65 22 348 335 331 316
281 274 272 264 255 255 266 271 271 270 266 265 267 268 271 271 271 269 279 269 267 262 256 251 255 258 258 255 249 244 219 196 190 194 194 166 178 182 173 158 144 114 191 172 156 129 145 139 150 135 128 117 104 131 149 149 154 150 142 115 107 112 118 129 129 122 113 90 55 10 344 331 332 313
288 282 279 271 267 261 259 261 263 262 258 257 261 263 261 264 265 277 277 264 265 267 258 257 249 252 253 246 239 229 215 205 196 199 190 183 179 179 167 169 174 177 162 168 164 133 144 151 153 167 147 146 167 174 148 159 167 169 149 134 127 132 129 135 133 141 138 98 28 347 330 311 327 311
287 286 281 280 273 269 266 263 263 262 261 259 258 256 257 255 266 276 275 272 265 261 259 257 256 254 249 238 226 213 208 203 200 197 189 183 187 175 169 169 178 147 144 163 159 133 146 160 154 149 101 99 114 131 165 158 172 155 148 148 139 146 144 142 128 147 170 187 242 287 299 305 316 319
278 275 280 281 281 281 276 272 269 268 268 265 260 258 260 264 265 267 266 269 266 257 255 256 254 249 233 219 207 203 198 193 184 177 153 146 128 152 170 171 165 153 155 166 161 144 136 162 163 151 139 121 133 132 138 162 154 146 130 135 137 135 132 142 141 158 155 134 284 288 293 304 311 312
276 278 278 278 280 281 279 277 275 274 272 271 264 264 263 266 267 269 267 265 260 251 251 249 238 223 204 193 175 130 85 55 71 80 84 89 90 79 69 60 50 112 136 145 145 143 143 143 161 155 144 131 130 140 134 145 160 133 131 134 130 136 140 140 151 157 146 156 237 284 309 305 298 309
272 278 278 282 284 284 283 282 281 278 275 271 270 268 267 266 268 267 267 260 251 245 242 235 217 199 187 173 146 113 101 86 85 80 79 82 82 86 76 64 66 77 91 109 120 131 134 139 152 151 144 146 142 147 142 94 111 146 146 138 123 118 138 134 154 137 175 182 214 280 273 280 326 357
270 272 278 282 283 283 282 281 280 278 275 273 270 267 265 265 263 262 258 256 245 237 228 224 214 186 147 105 96 99 102 104 97 91 76 75 83 85 81 73 67 55 46 53 80 105 136 141 140 130 127 131 126 127 130 139 140 151 151 142 152 149 144 147 146 156 118 108 237 271 277 311 314 351
274 276 274 275 276 278 278 277 274 275 275 273 269 264 260 255 254 253 255 249 239 231 233 213 194 155 112 114 116 120 128 125 127 122 118 115 111 110 103 89 63 37 28 23 54 77 100 119 130 128 109 89 100 122 125 127 125 119 131 137 119 116 143 145 141 114 146 206 254 274 292 296 274 243
279 279 279 282 282 280 279 276 274 272 273 274 269 262 250 246 245 246 245 243 238 236 222 205 130 123 124 112 124 144 148 135 141 139 132 124 128 119 114 109 101 70 26 18 27 30 62 81 97 118 115 101 80 92 113 113 123 131 138 128 143 149 147 137 152 146 168 112 305 283 270 265 268 239
284 283 282 280 279 277 274 273 271 264 261 258 260 254 247 245 242 241 241 241 237 232 202 102 118 120 135 142 143 143 141 142 137 147 136 133 135 132 123 107 116 113 87 56 46 42 33 25 68 75 89 118 123 113 87 102 125 139 135 137 127 92 109 132 136 141 108 76 310 274 264 265 257 258
285 282 283 282 282 278 276 276 274 272 266 261 254 247 245 246 244 240 231 222 222 189 135 156 152 144 142 128 137 137 132 135 140 142 124 133 135 144 118 125 134 139 130 111 85 54 46 47 29 55 63 69 88 120 125 113 114 129 139 139 131 123 125 149 143 138 87 25 275 273 272 269 260 254
290 284 282 280 279 278 275 274 273 272 266 262 255 249 243 241 240 234 232 227 211 152 165 155 157 153 139 130 149 144 140 131 129 145 146 145 145 131 127 125 111 94 96 112 108 107 93 74 83 73 68 64 54 49 41 117 138 137 128 126 131 144 144 118 119 118 117 212 238 282 276 282 293 272
283 283 280 280 277 274 273 272 272 270 267 262 260 259 252 241 236 234 230 218 144 155 151 161 158 158 157 155 151 149 150 148 144 144 145 139 137 133 125 109 122 122 117 117 119 128 118 119 112 97 78 86 75 37 66 29 112 126 112 116 124 142 132 130 112 59 98 291 274 278 301 299 279 276
280 278 277 275 273 273 271 271 271 268 265 262 259 261 258 246 234 229 229 181 152 159 157 162 165 162 161 156 158 153 152 148 148 148 149 144 134 123 83 92 106 116 113 120 126 133 135 133 136 131 132 147 136 123 71 79 34 92 138 140 144 130 119 101 99 132 241 249 235 193 271 289 288 303
278 275 274 272 272 271 272 272 271 269 262 258 256 253 254 250 238 231 215 154 168 166 173 165 165 163 154 153 150 151 152 154 149 154 149 145 125 125 106 120 126 122 114 115 126 139 145 149 159 147 139 143 157 158 133 24 286 29 103 140 136 135 125 131 156 203 222 181 263 234 226 261 279 282
276 275 272 272 272 274 272 270 267 264 261 257 256 255 250 249 240 193 139 163 173 171 169 168 162 158 153 155 153 150 155 152 148 148 150 144 134 131 124 127 133 133 100 116 136 142 149 154 167 176 160 157 156 145 149 134 23 254 163 91 127 134 137 149 178 185 228 199 181 252 283 277 276 293
273 272 272 272 273 271 269 266 262 263 261 259 257 255 252 234 191 166 172 174 173 166 167 163 161 162 160 163 162 157 155 151 155 155 151 153 122 119 121 132 108 98 103 117 120 125 142 160 179 188 172 160 159 160 151 151 171 153 164 140 101 123 150 154 169 173 149 199 290 306 296 264 274 280
276 274 277 280 280 279 275 272 268 264 261 257 256 254 241 220 187 174 174 171 167 168 170 168 154 152 159 159 154 156 158 162 160 159 157 146 143 138 139 138 121 128 126 127 141 153 155 163 130 76 75 99 99 96 90 94 84 73 84 149 150 143 168 119 160 144 287 232 150 287 280 291 274 282
292 288 286 287 290 286 283 278 276 274 266 261 256 248 234 214 181 186 179 175 170 168 172 166 164 166 164 161 163 160 159 160 156 149 144 139 138 144 129 125 128 139 136 148 147 156 153 83 91 99 104 103 117 104 89 84 98 139 163 252 213 196 183 159 151 161 194 165 137 242 266 266 277 307
301 306 304 297 291 285 282 282 280 276 270 264 255 243 218 197 195 192 187 179 170 170 164 165 164 167 167 163 162 160 160 158 159 158 152 143 140 133 125 130 136 148 152 159 163 138 91 110 87 92 110 117 121 103 124 145 143 152 167 160 159 203 199 219 218 207 190 166 183 212 253 302 273 267
305 297 291 286 284 282 281 282 279 276 271 263 250 219 190 191 179 175 162 166 167 169 169 167 165 163 161 162 164 163 157 157 158 153 147 145 140 137 143 150 149 149 139 92 61 96 115 101 120 103 99 88 62 75 113 111 121 132 137 141 178 332 328 281 267 258 246 230 218 210 184 172 126 235
294 289 289 291 291 288 286 284 281 276 267 258 233 200 180 180 184 181 174 171 172 173 169 165 164 162 160 162 159 158 159 158 156 152 151 150 143 142 138 134 134 125 111 109 111 113 120 117 98 122 109 95 93 95 112 111 122 137 138 134 111 130 264 279 309 296 278 259 249 242 238 236 238 242
319 320 314 309 304 300 294 287 283 276 265 239 207 191 183 174 175 171 169 168 168 162 161 162 161 159 157 159 157 159 155 152 151 149 143 133 130 129 130 134 128 125 121 136 130 130 131 125 111 90 89 81 68 86 90 96 110 114 120 124 170 204 216 198 301 308 313 319 261 235 240 248 256 262